Home > Weather > Churchill > Past weeks

Flag for Canada Weather for the Past 2 Weeks in Churchill, Manitoba, Canada

Now
28 °F

Partly sunny.


Feels Like: 22 °F
Forecast: N/A
Wind: 6 mph from Northeast

Location: Churchill

Current Time: Apr 28, 2016 at 5:23:32 PM

Latest Report: Apr 28, 2016 at 4:00 PM


Visibility: 15 mi

Pressure: 30.49 "Hg

Humidity: 86%

Dew Point: 25 °F

Location of ChurchillLocation

Historic Weather in Churchill — Graph

°F

Churchill Temperature Yesterday

Maximum temperature yesterday: 23 °F (at 1:00 PM)
Minimum temperature yesterday: 7 °F (at 5:00 AM)
Average temperature yesterday: 17 °F

High & Low Weather Summary for the Past Weeks

 TemperatureHumidityPressure
High54 °F (Apr 19, 5:00 PM)100% (Apr 15, 1:00 AM)30.65 "Hg (Apr 15, 1:00 AM)
Low-4 °F (Apr 14, 2:00 AM)35% (Apr 19, 5:00 PM)29.39 "Hg (Apr 20, 4:00 AM)
Average16 °F78%30.28 "Hg
* Reported Apr 13 4:00 PM — Apr 28 4:00 PM, Churchill, Weather by CustomWeather, © 2016

Note: Actual official high and low records may vary slightly from our data, if they occured in-between our weather recording intervals... More about our weather records

Advertising

Churchill Weather History for the Previous 24 Hours

Scroll right to see more
 ConditionsComfort  
Time TempWeatherWind HumidityBarometerVisibility
4:00 PM
Thu, Apr 28
28 °FPartly sunny.6 mph86%30.49 "Hg15 mi
3:00 PM28 °FScattered clouds.7 mph80%30.50 "Hg15 mi
2:00 PM28 °FPassing clouds.5 mph80%30.51 "Hg15 mi
1:00 PM27 °FPassing clouds.6 mph80%30.51 "Hg15 mi
12:00 PM27 °FPassing clouds.6 mph80%30.51 "Hg15 mi
11:00 AM27 °FPassing clouds.5 mph80%30.51 "Hg15 mi
10:00 AM25 °FScattered clouds.6 mph80%30.53 "Hg15 mi
9:00 AM25 °FBroken clouds.5 mph80%30.52 "Hg15 mi
8:00 AM25 °FBroken clouds.6 mph80%30.53 "Hg15 mi
7:00 AM23 °FPartly sunny.3 mph86%30.52 "Hg15 mi
6:00 AM21 °FPassing clouds.6 mph93%30.49 "Hg15 mi
5:00 AM23 °FOvercast.7 mph86%30.49 "Hg15 mi
4:00 AM23 °FPassing clouds.8 mph86%30.48 "Hg15 mi
3:00 AM23 °FOvercast.7 mph86%30.48 "Hg15 mi
2:00 AM23 °FPassing clouds.3 mph86%30.48 "Hg15 mi
12:00 AM23 °FPassing clouds.6 mph86%30.49 "Hg15 mi
10:00 PM
Wed, Apr 27
23 °FPassing clouds.5 mph86%30.49 "Hg15 mi
9:00 PM23 °FPartly sunny.5 mph80%30.49 "Hg15 mi
8:00 PM23 °FScattered clouds.3 mph80%30.49 "Hg15 mi
7:00 PM23 °FPassing clouds.7 mph80%30.49 "Hg15 mi
6:00 PM23 °FPassing clouds.9 mph74%30.48 "Hg15 mi
5:00 PM23 °FPassing clouds.8 mph74%30.48 "Hg15 mi
Weather by CustomWeather, © 2016

See weather overviewHow to use our weather pages